World > North America > United States > Virginia

Harrisonburg, Virginia Regional Weather

Lat: 38.44N, Lon: 78.87W
Wx Zone: VAZ026Web Search

Helpful Tip: Type the letters wx in the search engine next time you need to find us.

Feedback
Harrisonburg Weather Map
UTC Time: 12/3/2020, 00:53
Your Time:

Harrisonburg, VA Regional Weather

Expires:202012030100;;749712
ASUS41 KLWX 030012
RWRLWX

REGIONAL WEATHER ROUNDUP
NATIONAL WEATHER SERVICE BALTIMORE MD/WASHINGTON DC
700 PM EST WED DEC 02 2020

Note: "FAIR" indicates few or no clouds below 12,000 feet
with no significant weather and/or obstructions to visibility.
 TC=TEMPERATURE CELSIUS

 * =Non NWS site. Station does not report precipitation (e.g. rain,
    snow, etc.), thunder, or fog.


VAZ025>031-030100-
SHENANDOAH VALLEY
  
CITY           SKY/WX    TMP DP  RH WIND       PRES   REMARKS
WINCHESTER*    CLEAR     37  18  44 W17G23    30.20S WCI  28          
FRONT ROYAL*   CLEAR     41  14  33 W10G18    30.22R WCI  35          
LURAY*         CLEAR     41  14  33 W8        30.23R                  
NEW MARKET*    CLEAR     33  19  56 CALM      30.24R                  
STAUNTON*      CLEAR     38  10  31 E5        30.25R WCI  34          
WAYNESBORO*    CLEAR     37  13  36 NW5       30.23R WCI  34          

$$


SKY/WX - Weather  TMP - Temperature  DP - Dew Point  RH - Relative Humidity
WIND - Wind Direction/Speed PRES - Barometric Pressure VSB - Visibility
WCI - Wind Chill Index E13G22 Wind - East Wind 13 mph/Gusts of 22 mph